Location: Cornospital
(48.0620°N, 3.3837°W)
Time: 21:23:33
(UTC+00:00)

Cosmos 2278 Rocket - Pass Details

Date: 17 June 2021
Orbit: 840 x 847 km, 71.0° (Epoch: 02 August)

Event Time Altitude Azimuth Distance (km) Brightness Sun altitude
Rises 21:50:54 0° 336° (NNW) 3,411 7.3 -11.6°
Reaches altitude 10° 21:53:40 10° 347° (NNW) 2,474 5.9 -11.9°
Maximum altitude 21:58:38 30° 48° (NE) 1,477 3.6 -12.3°
Drops below altitude 10° 22:03:34 10° 109° (ESE) 2,466 4.2 -12.7°
Enters shadow 22:03:44 - 110° (ESE) 2,522 4.2 -12.7°
